Погода Правая Хетта

Погода Правая Хетта : погода сейчас, прогноз погоды и архив. Всё, что Вы хотите узнать о погоде Правая Хетта!

Хотите узнать прогноз погоды Правая Хетта? Тогда Вам сюда: Погода Правая Хетта

Поиск расширенной информации на нашем сайте:

Другие новости

Новости СМИ2

Главная страница сайта

Новости сайта

03.07.2017

Напоминаем, что на нашем специализированном сайте Метеоцентр.Азия вы можете получить высокодетализированные автоматические прогнозы погоды по пунктам России, СНГ и мира в авиационном формате (включающие направление и скорость ветра, видимость, явления погоды, количество и форму облачности, нижнюю и верхнюю границу облачности).


Погода Правая Хетта - сегодня

Время (UTC), дата Ветер
(°,м/с) 
Видим.   Явления Облачность Т
(°С)
Тd
(°С)
f(%) Тe
(°С)
Pmin
(гПа)
dP
(гПа)
Po
(мм)
O2
(г/м3)
Тmin Tmax R s Состояние
почвы
06 21.11.17 120 (ЮВ) 4000 м  слаб. ливневой снег  10/10 600 м кучево-дожд. 
[Cb cap]
-13.1 -14.3 91 -18  1017.8  -0.9  758  322           
09 21.11.17 110 (В) 2000 м  ливневой снег  10/10 300 м кучево-дожд. 
[Cb cap]
-12.9 -14.1 91 -17  1017.2  -0.6  758  322           
12 21.11.17 100 (В) 10 км  слаб. ливневой снег  10/10 300 м кучево-дожд. 
[Cb cap]
-13.3 -14.5 91 -17  1017.2  758  322           
15 21.11.17 080 (В) 20000 м  {ливн. осадки}  6/0 верхняя 
[Cs]
-16.8 -18.3 88 -19  1018.8  1.5  759  327    -12.3     
18 21.11.17 080 (В) 10 км  слаб. ливневой снег  10/10 300 м кучево-дожд. 
[Cb cap]
-16.1 -17.6 88 -18  1021  2.2  761  327           
21 21.11.17 070 (В) 4000 м  слаб. ливневой снег  10/10 300 м кучево-дожд. 
[Cb cap]
-17.2 -18.6 89 -20  1023.3  2.2  762  329           
00 22.11.17 100 (В) 4000 м  слаб. ливневой снег  10/10 300 м кучево-дожд. 
[Cb cap]
-15.8 -17.1 90 -20  1024.6  1.3  763  328           
03 22.11.17 090 (В) 4000 м  слаб. ливневой снег  10/10 300 м кучево-дожд. 
[Cb cap]
-17.1 -18.7 87 -20  1025.6  764  330  -17.2    0.2  26  равномерный
сухой снег
100% 
06 22.11.17 100 (В) 4000 м  слаб. ливневой снег  10/10 300 м кучево-дожд. 
[Cb cap]
-18 -19.7 87 -22  1026.2  0.6  764  331  -18         
09 22.11.17 090 (В) 2000 м  ливневой снег  10/10 300 м кучево-дожд. 
[Cb cap]
-18.3 -20.2 85 -21  1027  0.8  765  332           
12 22.11.17 100 (В) 10 км  слаб. ливневой снег  10/10 300 м кучево-дожд. 
[Cb cap]
-18 -19.8 86 -22  1026.7  -0.3  765  331           
15 22.11.17 090 (В) 4000 м  слаб. ливневой снег  10/10 300 м кучево-дожд. 
[Cb cap]
-17.4 -19.1 87 -21  1026.1  -0.6  764  330    -17.1  0.6     
18 22.11.17 090 (В) 10 км  слаб. ливневой снег  10/10 300 м кучево-дожд. 
[Cb cap]
-17.2 -18.9 87 -21  1026.3  0.2  764  330           
21 22.11.17 080 (В) 10 км  слаб. ливневой снег  10/10 300 м кучево-дожд. 
[Cb cap]
-17.4 -19.1 87 -22  1025.6  -0.7  764  330           
00 23.11.17 080 (В) 4000 м  слаб. ливневой снег  10/10 300 м кучево-дожд. 
[Cb cap]
-17.4 -19.3 85 -22  1025.5  0.1  764  330           
03 23.11.17 080 (В) 4000 м  слаб. ливневой снег  10/6 300 м кучево-дожд., средняя 
[Cb cap|Ac As]
-16.1 -17.6 88 -20  1025.6  0.1  764  329  -17.6    0.8  26  равномерный
сухой снег
100% 
06 23.11.17 080 (В) 2000 м  снег{ливн. осадки}  10/10 300 м 
[Ns]
-15.9 -17.5 87 -20  1025.6  764  328           
09 23.11.17 080 (В) 4000 м  слаб. снег  10/10 300 м 
[Ns]
-16.8 -18.6 86 -22  1025.4  764  329           
12 23.11.17 090 (В) 4000 м  слаб. снег  10/0 средняя 
[Ac As]
-17.1 -19 85 -23  1024.2  -1.2  763  329           
15 23.11.17 090 (В) 10 км  слаб. снег  10/0 средняя 
[Ac As]
-17.2 -19.2 84 -23  1023.6  -0.6  762  329    -15.6     
18 23.11.17 110 (В) 20000 м  позёмок{снег}  10/10 300 м 
[St]
-16.9 -18.9 84 -24  1021.6  -1.9  761  328           
21 23.11.17 110 (В) 4000 м  слаб. снег  10/10 300 м 
[Sc diur, vesp]
-16.3 -17.6 90 -23  1019.1  -2.5  759  327           
00 24.11.17 110 (В) 1000 м  слаб. снег  10/10 300 м 
[Ns]
-15.8 -17.2 89 -22  1015.9  -3.1  757  325           
03 24.11.17 130 (ЮВ) 1000 м  снег  10/10 300 м 
[Ns]
-15.3 -16.8 88 -21  1012.5  -3.4  754  323  -17.3    29  равномерный
сухой снег
100% 
06 24.11.17 140 (ЮВ) 7-10{12}  4000 м  слаб. снег  10/10 300 м 
[Ns]
-14.7 -16.4 87 -22  1007.8  -4.4  751  321           
Время (UTC), дата Ветер
(°,м/с) 
Видим.   Явления Облачность Т
(°С)
Тd
(°С)
f(%) Тe
(°С)
Pmin
(гПа)
dP
(гПа)
Po
(мм)
O2
(г/м3)
Тmin Tmax R s Состояние
почвы

Для получения пояснительной информации подведите курсор к названию столбца.

ПОГОДА Правая Хетта - архив

Всё, что Вы хотите узнать о погоде Правая Хетта - удобно и подробно!

Выберите нужную дату (начиная с 1 января 2015* года) и нажмите кнопку "Найти".
Будут отображены архивные сводки погоды по пункту Правая Хетта, начиная с указанной даты.


Отображать данные в формате CSV (для использования в таблицах Excel)


Внимание! Наш архив погоды предназначен исключительно для личного некоммерческого использования в познавательных целях. Если Вам необходимы официальные справки о состоянии погоды (для производственных, юридических, коммерческих и т.п. целей), обращайтесь в органы Росгидромета.

*Примечание: данная дата относится к архиву по метеостанциям СССР (Россия, СНГ, Балтия).
Архив по метеостанциям Зарубежной Европы и Азии (кроме Китая) хранится 10 дней, по другим регионам земного шара (Китай, Африка, Америка, Австралия, Океания) - 1 день.

Правая Хетта - район местоположения метеостанции


Название, широта, долгота, высота метеостанции:
Правая Хетта 65.9°ш. 74.5°д. 54 м над ур. моря [Российская Федерация]

Дополнительная информация

В oтличие oт бoльшинства пoгoдных сайтoв мы публикуем пoдрoбную метеoинфoрмацию в детальнoм прoфессиoнальнoм фoрмате.

Характеристики температуры и влажнoсти вoздуха измеряются на высoте 2 м в тени вдали oт зданий и деревьев.
Скoрoсть ветра измеряется на высoте 10 м (на урoвне рoста челoвека скoрoсть ветра ниже в 1.5-2 раза). Если метеoстанция нахoдится в гoрoде или в лесу, тo скoрoсть ветра занижена на 2-4 м/с пo сравнению с oткрытым местoм. Скoрoсть ветра над акватoриями крупных рек и oзёр, а также на вершинах хoлмoв на 2-5 м/с выше, чем в oбычных услoвиях.
Атмoсфернoе давление в разных тoчках местнoсти мoжет значительнo oтличаться oт давления на метеoстанции, в зависимoсти oт услoвий рельефа (при пoдъёме на 10 м давление пoнижается примернo на 1 мм рт.ст.).